Showing default

METEOR 1-11, 5917

Orbit data source: Space-Track

METEOR 1-11, 5917 is a Commonwealth of Independent States-origin payload satellite in LEO that was launched on Thu, 30 Mar 1972 UTC via a VOSTOK 8A92M launch vehicle from the Plesetsk Missile And Space Complex (PKMTR). Payloads include a variety of satellites, spacecraft, and rockets equipped with specific instruments for various scientific and technological missions. These include communications satellites like Starlink; space stations such as the ISS; scientific satellites like the Hubble; Earth observation satellites from companies like Planet Labs, Umbra, and HawkEye 360; GPS; miniature CubeSats for education and research; and military/defense satellites.

Loading next visibility...
METEOR 1-11 details
Identifier
5917, 1972-022A
Orbit
LEO
Last TLE update6 hours ago
Origin
Flag of CISGUKOSR/GMS (CIS)
ManufacturerVNIIEM
MissionDefense Weather
Bus & MotorMETEOR, Unknown motor
Mass1,280 kg wet, 1,280 kg dry
Launch date (UTC)
1972-03-30 (53 years ago)
Launch vehicle
VOSTOK 8A92M
Launch site
Plesetsk Missile And Space Complex (PKMTR)
Object type
Payload
Rocket body
Debris
Shape & HBRCyl + 2 Pan, 4.5 m
Radar Cross Section5.718 m², Large (>1 m²)

Expand to show TLE details & history

TLE from 6 hours ago
0 METEOR 1-11
1 05917U 72022A   24361.28952039  .00000431  00000-0  23995-3 0  9998
2 05917  81.2237  89.1064 0034297  41.3406 319.0351 14.09086785708687
Epoch: 2024-12-26T06:56Z
Definitive object data (Epoch: 2024-12-26T06:56:54.561Z)
Latitude0.00001°
Longitude-110.39198°
Altitude846.677 km
Speed7.439 km/s
True Right ascension05h 56m 25s
True Declination0° 00' 00"
Sunlit
Object was in full shadow at TLE epoch
Visualization TLE readout
Latitude-36.48005°
Longitude75.87943°
Altitude901.065 km
Speed7.388 km/s
Apparent Right ascension21h 03m 14s
Apparent Declination-47° 58' 13"
Sunlit
Object is in daylight
Visualization observer readout
Local Sidereal Time12:26:43
Azimuth119.897° SE
Elevation-53.197°
Doppler factor1
Orbital elements
Apogee altitude884.498 km
Perigee altitude834.851 km
Semi-major axis7,237.812 km
Eccentricity0.0034297
Inclination81.2237°
RAAN89.1064°
Arg. of periapsis41.3406°
True anomaly318.77661°
Mean anomaly319.0351°
Eccentric anomaly318.90594°
Mean motion3.52478 °/min
BSTAR0.00023995
Orbital period102.13 mins
Loading maneuver chart data...
Loading historical data...
Loading historical data...
Loading historical data...
Loading historical data...
Loading historical data...
Loading historical data...
Loading historical data...

METEOR 1-11 Visibility forecast

Observer location: undefined°, undefined

Span
Click to sort rows by Start time (UTC) header in descending order
Start Az.
Max El. time (UTC)
Max El. Az.
Max El.
End time (UTC)
End Az.
11 mins2024-12-26 17:44:06.153Z355.313° N2024-12-26 17:50:06.153Z109.127° ESE42.775°2024-12-26 17:55:06.153Z163.202° S
9 mins2024-12-27 06:56:06.153Z190.023° SSW2024-12-27 07:00:06.153Z345.215° N44.641°2024-12-27 07:05:06.153Z8.446° NNE
|